Other Public Products
Issued by NWS Grand Forks, ND

Home | Current Version | Previous Version | Text Only | Print | Product List | Glossary Off
Versions: 1 2 3 4 5 6 7 8 9 10 11 12 13 14 15 16 17 18 19 20 21 22 23 24 25 26 27 28 29 30 31 32 33 34 35 36 37 38 39 40 41 42 43 44 45 46 47 48 49 50

000
FPUS83 KFGF 061910
OPUFGF
PRAIRIE TO PINES WEATHER ROUNDUP
NATIONAL WEATHER SERVICE EASTERN NORTH DAKOTA/GRAND FORKS ND
200 PM CDT WED MAY 06 2015

 **SATELLITE DATA USED TO AUGMENT SKY COVER AT AUTOMATED STATIONS**
 *****  WEATHER ACROSS EASTERN NORTH DAKOTA  *****

CITY           SKY/WX    TMP DP  RH WIND       PRES   REMARKS
GRAND FORKS    CLOUDY    63  59  87 SE14G23   29.84F
GRAND FORKS AF CLOUDY    63  59  88 SE14      29.83F
GRAND CITY NWS   N/A     61 N/A N/A SE21        N/A
BUXTON         NOT AVBL
DEVILS LAKE    CLOUDY    57  54  88 SE14      29.78F
FARGO          LGT RAIN  64  60  87 SE12      29.84F
WAHPETON ARPT  CLOUDY    63  57  82 SE14      29.83F
$$

 *****  WEATHER ACROSS CENTRAL AND WESTERN NORTH DAKOTA  *****

CITY           SKY/WX    TMP DP  RH WIND       PRES   REMARKS
JAMESTOWN      CLOUDY    61  58  90 SE16G25   29.76F
BISMARCK       LGT RAIN  64  60  87 SE20G25   29.69F
MINOT          LGT RAIN  60  58  92 E15       29.70F FOG
MINOT AFB      LGT RAIN  61  61 100 E9        29.69F FOG
GARRISON         N/A     62  59  90 SE14      29.68F
WILLISTON      LGT RAIN  60  57  89 SE5       29.70F FOG
DICKINSON      LGT RAIN  60  56  86 SE7       29.66F
HETTINGER      LGT RAIN  58  56  93 S7        29.68F FOG
$$

 *****  OTHER OBSERVATIONS NORTHEAST NORTH DAKOTA  *****

CITY           SKY/WX    TMP DP  RH WIND       PRES   REMARKS
WALHALLA       MOCLDY    59  59 100 SE13      29.83F FOG
LANGDON        HVY RAIN  57  57 100 SE12      29.82F
CAVALIER       LGT RAIN  59  59 100 SE9       29.83F
GRAFTON        CLOUDY    61  61 100 S13       29.84F FOG
CANDO          CLOUDY    57  57 100 SE13      29.79F
FORT TOTTEN      N/A     59  58  98 SE10      29.95
ROLLA          NOT AVBL
RUGBY          NOT AVBL
 ***** THE ABOVE OBSERVATIONS ARE NON NWS ARE NOT QUALITY
        CONTROLLED AND MAY MIS-REPORT RAIN FOR SNOW...
$$

 *****  OTHER OBSERVATIONS SOUTHEAST NORTH DAKOTA *****

CITY           SKY/WX    TMP DP  RH WIND       PRES   REMARKS
COOPERSTOWN    NOT AVBL
VALLEY CITY    CLOUDY    59  59 100 SE17G23   29.80F
OAKES          LGT RAIN  63  63 100 E16       29.76F
GWINNER        CLOUDY    63  63 100 E16       29.79F
SHEYENNE NWR     N/A     62  61  95 SE13      29.95S
BUFFALO        NOT AVBL
WYNDMERE       NOT AVBL
 ***** THE ABOVE OBSERVATIONS ARE NON NWS ARE NOT QUALITY
       CONTROLLED AND MAY MIS-REPORT RAIN FOR SNOW...
$$

  *****  WEATHER ACROSS NORTHERN MINNESOTA  *****

CITY           SKY/WX    TMP DP  RH WIND       PRES   REMARKS
FLAG ISLAND    CLOUDY    59  52  77 SE7       29.92F
WARROAD        CLOUDY    66  57  72 SE10      29.91F
ROSEAU         CLOUDY    72  55  56 SE13      29.89F
HALLOCK        CLOUDY    64  61  88 S10       29.85S
THF RVR FALLS  CLOUDY    66  55  68 SE13      29.89S
HALSTAD        NOT AVBL
FOSSTON        LGT RAIN  63  54  72 SE10      29.90F
BAUDETTE       CLOUDY    62  54  74 SE15      29.94F
WASKISH        CLOUDY    70  55  60 SE13      29.93F
CROOKSTON      LGT RAIN  64  59  82 SE16      29.87F
$$
  *****  WEATHER ACROSS CENTRAL AND WEST MINNESOTA  *****

CITY           SKY/WX    TMP DP  RH WIND       PRES   REMARKS
BEMIDJI        DRIZZLE   62  55  77 SE10      29.93F
PARK RAPIDS    LGT RAIN  62  55  77 SE12      29.92F
WADENA         CLOUDY    59  55  88 SE12      29.92S FOG
DETROIT LAKES  CLOUDY    63  55  77 SE15      29.90S
MOORHEAD       LGT RAIN  64  61  88 SE10      29.86S
FERGUS FALLS   CLOUDY    63  57  82 SE14G20   29.86F
ELBOW LAKE     FAIR      63  57  82 E18G25    29.85F
MORRIS MN      CLOUDY    70  59  68 E22       29.81F
STAPLES        CLOUDY    63  54  72 E9G16     29.93F
WHEATON        CLOUDY    63  57  82 E22       29.82F
$$
  *****  WEATHER ELSEWHERE ACROSS MINNESOTA  *****

CITY           SKY/WX    TMP DP  RH WIND       PRES   REMARKS
DULUTH         CLOUDY    56  49  77 E13       30.06F
INTRNTL FALLS  CLOUDY    66  54  65 SE13      29.97F
ELY            CLOUDY    57  48  72 SE9       30.06F
CLOQUET        CLOUDY    57  46  67 E14       30.04F
BRAINERD       CLOUDY    63  55  75 SE9G21    29.97F
HIBBING        CLOUDY    61  51  70 SE12      30.03F
ALEXANDRIA     CLOUDY    64  57  78 E20G25    29.89F
SAINT CLOUD    CLOUDY    68  57  68 E12       29.93F
MINNEAPOLIS    CLOUDY    69  59  70 E16       29.96F
$$

  *****  WEATHER ACROSS SOUTH DAKOTA  *****

CITY           SKY/WX    TMP DP  RH WIND       PRES   REMARKS
SIOUX FALLS    CLOUDY    66  61  84 S21G31    29.77F
BROOKINGS      CLOUDY    66  61  82 SE23G39   29.77F
WATERTOWN      LGT RAIN  65  60  84 E14G28    29.74F
HURON          CLOUDY    64  61  90 SE20G28   29.69F
SISSETON         N/A     63  62  97 SE16      29.77F
ABERDEEN       RAIN      64  62  93 E10       29.73F FOG
MITCHELL       CLOUDY    65  63  93 SE18G24   29.69F
PIERRE         CLOUDY    68  60  75 SE15      29.63F
MOBRIDGE       CLOUDY    70  61  73 SE16      29.65F
RAPID CITY     PTSUNNY   63  54  72 VRB6      29.64F
$$

  *****  SOME WEATHER IN NEARBY STATES *****

CITY           SKY/WX    TMP DP  RH WIND       PRES   REMARKS
GLASGOW MT     PTSUNNY   53  41  63 NW26G32   29.80R
GREAT FALLS MT PTSUNNY   52  26  36 VRB3      29.93S
CHEYENNE WY    CLOUDY    54  44  69 N14G21    29.71S
SCOTTSBLUFF NE CLOUDY    62  51  67 NE6       29.64F
OMAHA NE       CLOUDY    69  62  78 S22       29.83F THUNDER
DES MOINES IA  CLOUDY    76  58  53 S20       29.93F
DAVENPORT IA   MOSUNNY   81  52  36 S25G36    30.05F
CHICAGO IL     MOSUNNY   74  58  57 NE12      30.12F
EAU CLAIRE WI  PTSUNNY   69  58  67 SE8       30.04F
LA CROSSE WI   MOSUNNY   77  60  55 SE8       30.02F
$$

  *****  SOME NATIONAL WEATHER *****

CITY           SKY/WX    TMP DP  RH WIND       PRES   REMARKS
LA GUARDIA NY  CLOUDY    65  35  33 NE9       30.26F
RALEIGH NC     PTSUNNY   82  56  40 E6        30.17F
ATLANTA GA     MOSUNNY   79  54  41 NE7       30.16F
NEW ORLEANS LA PTSUNNY   85  62  46 S13       30.05F
OKLAHOMA CITY  CLOUDY    73  65  75 S21G29    29.87F
ALBUQUERQUE NM PTSUNNY   66  41  40 W9G18     29.92F
SALT LAKE CITY CLOUDY    62  39  42 W9        29.74F THUNDER
LOS ANGELES CA CLOUDY    61  53  75 W12       29.91S
BOISE ID       PTSUNNY   59  27  29 NW16G23   29.84F
SEATTLE WA     PTSUNNY   52  43  71 NW5       30.14F
$$

*** WEATHER ACROSS MANITOBA...SASKATCHEWAN AND ONTARIO ***
                ***ONTARIO***

CITY           SKY/WX    TMP DP  RH WIND       PRES   REMARKS
GERALDTON      MOSUNNY   73  28  19 S9G22     30.13F
THUNDER BAY    PTSUNNY   64  30  27 E14       30.14F
SIOUX LOOKOUT  CLOUDY    72  48  43 S12G20    30.00F
TORONTO        MOSUNNY   70  39  32 SE6       30.24F
BIG TROUT LK   MOSUNNY   52  27  37 E10G17    30.12F
PICKLE LAKE    MOSUNNY   73  36  25 S15G23    30.02F
DRYDEN         PTSUNNY   70  50  49 S17G24    29.98F
KENORA         CLOUDY    66  52  59 SE13G20   29.95F
$$
                *** MANITOBA***

CITY           SKY/WX    TMP DP  RH WIND       PRES   REMARKS
BRANDON        LGT RAIN  63  59  88 S9        29.78S
DAUPHIN        CLOUDY    68  55  64 S14       29.73S
ISLAND LAKE    NOT AVBL
PILOT MOUND      N/A     59  55  88 SE15        N/A
THE PAS        PTSUNNY   50  34  53 E17G29    29.76F
THOMPSON       CLOUDY    32  23  69 NE16G28   30.09F WCI  21
WINNIPEG       CLOUDY    72  55  56 SE22      29.83F
LYNN LAKE      LGT SNOW  27  25  93 NE15G23   30.10F VSB 3/4 WCI  15
CHURCHILL      PTSUNNY   21 N/A N/A NW12        N/A  WCI   9
GILLAM         HVY SNOW  21  19  93 NE13      30.24F VSB 1/4 WCI   9
$$
                ***SASKATCHEWAN***

CITY           SKY/WX    TMP DP  RH WIND       PRES   REMARKS
ESTEVAN        LGT RAIN  61  55  82 S17       29.71S
KINDERSLEY     PTSUNNY   50  34  53 W20G30    29.85S
LLOYDMINSTER   LGT RAIN  37  36  93 N13       29.85R
PRINCE ALBERT  LGT RAIN  41  39  93 NE12      29.76S
REGINA         LGT RAIN  50  48  93 NW17      29.74F


USA.gov is the U.S. government's official web portal to all federal, state and local government web resources and services.